Location: Passau
(48.5830°N, 13.4830°E)
Time: 21:40:37
(UTC+02:00)

S-56A Canister/Altair - Pass Details

Date: 19 May 2024
Orbit: 637 x 2489 km, 38.9° (Epoch: 16 June)

Event Time Altitude Azimuth Distance (km) Brightness Sun altitude
Rises 08:51:19 0° 233° (SW) 5,451 11.5 32.6°
Reaches altitude 10° 08:55:40 10° 226° (SW) 4,161 11.0 33.4°
Maximum altitude 09:04:45 35° 167° (SSE) 2,087 10.3 34.8°
Drops below altitude 10° 09:11:08 10° 104° (ESE) 2,905 11.9 35.9°
Sets 09:13:38 0° 95° (E) 3,650 12.0 36.3°
